Beatrice, NE

3:56 PM CDT on March 27, 2017 (GMT -0500)
Beatrice Municipal

Weather History for KBIE - September, 2012

Change the Weather History Date:

Tuesday, September 25, 2012

  Actual Average Record
Temperature  
Mean Temperature 68 °F -  
Max Temperature 84 °F 76 °F 93 °F (1998)
Min Temperature 51 °F 50 °F 35 °F (1975)
Cooling Degree Days 2    
Growing Degree Days 18 (Base 50)    
Moisture  
Dew Point 45 °F    
Average Humidity 49    
Maximum Humidity 86    
Minimum Humidity 18    
Precipitation  
Precipitation 0.00 in - - ()
Sea Level Pressure  
Sea Level Pressure 29.85 in    
Wind  
Wind Speed 4 mph (NNE)    
Max Wind Speed 9 mph    
Max Gust Speed -    
Visibility 10 miles    
Events      
Averages and records for this station are not official NWS values.
T = Trace of Precipitation, MM = Missing Value Source: NWS Daily Summary

Daily Weather History Graph

Daily Weather History Graph

Search for Another Location

Airport or City:

Trip Planner

Search our weather history database for the weather conditions in past years. The results will help you decide how hot, cold, wet, or windy it might be!

Date:

Astronomy

Sep. 25, 2012 Rise Set
Actual Time 7:17 AM CDT 7:18 PM CDT
Civil Twilight 6:50 AM CDT 7:45 PM CDT
Nautical Twilight 6:19 AM CDT 8:16 PM CDT
Astronomical Twilight 5:47 AM CDT 8:49 PM CDT
Moon 4:44 PM CDT (9/25) 2:40 AM CDT (9/25)
Length of Visible Light 12h 54m
Length of Day
12h 00m
Waxing Gibbous, 80% of the Moon is Illuminated
Sep 25
Waxing Gibbous
Sep 29
Full
Oct 8
Last Quarter
Oct 15
New
Oct 21
First Quarter

Hourly Weather History & Observations

Time (CDT) Temp. Dew Point Humidity Pressure Visibility Wind Dir Wind Speed Gust Speed Precip Events Conditions
12:15 AM 62.6 °F 51.8 °F 68% 29.83 in 10.0 mi NNE 4.6 mph - N/A   Clear
12:35 AM 62.8 °F 51.8 °F 67% 29.83 in 10.0 mi NE 4.6 mph - N/A   Clear
12:55 AM 63.0 °F 52.2 °F 68% 29.84 in 10.0 mi NNW 9.2 mph - N/A   Scattered Clouds
1:15 AM 63.5 °F 51.8 °F 66% 29.84 in 10.0 mi North 8.1 mph - N/A   Clear
1:35 AM 64.0 °F 51.1 °F 63% 29.84 in 10.0 mi NNE 6.9 mph - N/A   Clear
1:55 AM 63.5 °F 51.4 °F 65% 29.83 in 10.0 mi NNE 5.8 mph - N/A   Light Drizzle
2:15 AM 63.7 °F 50.9 °F 63% 29.83 in 10.0 mi ENE 6.9 mph - N/A   Scattered Clouds
2:35 AM 63.7 °F 51.3 °F 64% 29.82 in 10.0 mi NNE 5.8 mph - N/A   Scattered Clouds
2:55 AM 62.8 °F 51.1 °F 66% 29.82 in 10.0 mi Calm Calm - N/A   Clear
3:15 AM 62.6 °F 50.9 °F 66% 29.82 in 10.0 mi NE 3.5 mph - N/A   Clear
3:35 AM 60.4 °F 50.2 °F 69% 29.82 in 10.0 mi Calm Calm - N/A   Clear
3:55 AM 57.4 °F 50.4 °F 77% 29.82 in 10.0 mi Calm Calm - N/A   Clear
4:15 AM 55.8 °F 50.0 °F 81% 29.82 in 10.0 mi NNW 5.8 mph - N/A   Clear
4:35 AM 57.2 °F 51.3 °F 81% 29.82 in 10.0 mi Calm Calm - N/A   Clear
4:55 AM 54.1 °F 48.2 °F 80% 29.81 in 10.0 mi Calm Calm - N/A   Clear
5:15 AM 54.1 °F 49.1 °F 83% 29.81 in 10.0 mi North 5.8 mph - N/A   Clear
5:35 AM 53.6 °F 48.6 °F 83% 29.81 in 10.0 mi Calm Calm - N/A   Clear
5:55 AM 54.5 °F 48.9 °F 81% 29.81 in 10.0 mi Calm Calm - N/A   Clear
6:15 AM 53.2 °F 47.7 °F 81% 29.82 in 10.0 mi Calm Calm - N/A   Clear
6:35 AM 51.4 °F 46.6 °F 83% 29.83 in 10.0 mi WNW 4.6 mph - N/A   Clear
6:55 AM 52.2 °F 48.0 °F 86% 29.84 in 10.0 mi Calm Calm - N/A   Clear
7:15 AM 52.9 °F 48.9 °F 86% 29.85 in 10.0 mi Calm Calm - N/A   Clear
7:35 AM 52.3 °F 48.4 °F 86% 29.85 in 10.0 mi NNW 3.5 mph - N/A   Clear
7:55 AM 53.6 °F 49.5 °F 86% 29.86 in 10.0 mi Calm Calm - N/A   Clear
8:15 AM 55.0 °F 50.2 °F 84% 29.86 in 7.0 mi Calm Calm - N/A   Clear
8:35 AM 57.6 °F 52.2 °F 82% 29.87 in 7.0 mi NNW 4.6 mph - N/A   Clear
8:55 AM 59.7 °F 52.3 °F 77% 29.87 in 10.0 mi NNW 4.6 mph - N/A   Clear
9:15 AM 60.8 °F 52.5 °F 74% 29.87 in 10.0 mi NNW 5.8 mph - N/A   Clear
9:35 AM 65.5 °F 52.2 °F 62% 29.88 in 10.0 mi NE 3.5 mph - N/A   Clear
9:55 AM 68.7 °F 51.6 °F 54% 29.87 in 10.0 mi NNE 5.8 mph - N/A   Clear
10:15 AM 72.0 °F 50.4 °F 46% 29.88 in 10.0 mi NNE 6.9 mph - N/A   Clear
10:35 AM 73.9 °F 48.6 °F 41% 29.88 in 10.0 mi NE 6.9 mph - N/A   Clear
10:55 AM 74.8 °F 45.9 °F 36% 29.88 in 10.0 mi NE 6.9 mph - N/A   Clear
11:15 AM 75.4 °F 44.1 °F 33% 29.88 in 10.0 mi NNE 6.9 mph - N/A   Clear
11:35 AM 76.5 °F 43.7 °F 31% 29.88 in 10.0 mi NE 5.8 mph - N/A   Clear
11:55 AM 77.0 °F 42.6 °F 29% 29.88 in 10.0 mi ENE 5.8 mph - N/A   Clear
12:15 PM 77.9 °F 40.1 °F 26% 29.87 in 10.0 mi NE 5.8 mph - N/A   Clear
12:35 PM 78.8 °F 39.6 °F 25% 29.87 in 10.0 mi East 5.8 mph - N/A   Clear
1:15 PM 80.4 °F 38.5 °F 22% 29.86 in 10.0 mi Calm Calm - N/A   Clear
1:55 PM 82.4 °F 37.4 °F 20% 29.84 in 10.0 mi NNE 3.5 mph - N/A   Clear
2:15 PM 82.8 °F 38.5 °F 21% 29.83 in 10.0 mi NNE 5.8 mph - N/A   Clear
2:35 PM 82.8 °F 36.9 °F 19% 29.83 in 10.0 mi East 3.5 mph - N/A   Clear
2:55 PM 83.7 °F 36.7 °F 19% 29.83 in 10.0 mi NNW 6.9 mph - N/A   Clear
3:15 PM 84.4 °F 36.5 °F 18% 29.82 in 10.0 mi NNW 6.9 mph - N/A   Clear
3:35 PM 84.2 °F 35.6 °F 18% 29.82 in 10.0 mi East 8.1 mph - N/A   Clear
3:55 PM 83.8 °F 36.1 °F 18% 29.82 in 10.0 mi East 3.5 mph - N/A   Clear
4:15 PM 84.4 °F 36.5 °F 18% 29.82 in 10.0 mi Calm Calm - N/A   Clear
4:35 PM 83.3 °F 37.4 °F 19% 29.82 in 10.0 mi NE 4.6 mph - N/A   Clear
4:55 PM 83.8 °F 37.9 °F 20% 29.82 in 10.0 mi NE 4.6 mph - N/A   Clear
5:15 PM 83.5 °F 36.9 °F 19% 29.83 in 10.0 mi ENE 4.6 mph - N/A   Clear
5:35 PM 82.8 °F 37.9 °F 20% 29.83 in 10.0 mi NE 3.5 mph - N/A   Clear
5:55 PM 81.9 °F 39.6 °F 22% 29.84 in 10.0 mi NE 3.5 mph - N/A   Clear
6:15 PM 80.2 °F 41.4 °F 25% 29.84 in 10.0 mi ENE 3.5 mph - N/A   Clear
6:35 PM 79.0 °F 41.9 °F 27% 29.85 in 10.0 mi NE 3.5 mph - N/A   Clear
6:55 PM 77.9 °F 42.8 °F 29% 29.85 in 10.0 mi NE 3.5 mph - N/A   Clear
7:15 PM 77.9 °F 41.4 °F 27% 29.86 in 10.0 mi Calm Calm - N/A   Clear
7:35 PM 77.0 °F 46.4 °F 34% 29.86 in 10.0 mi Calm Calm - N/A   Clear
7:55 PM 73.0 °F 43.7 °F 35% 29.85 in 10.0 mi NE 5.8 mph - N/A   Clear
8:15 PM 70.0 °F 45.1 °F 41% 29.85 in 7.0 mi NE 5.8 mph - N/A   Clear
8:35 PM 70.5 °F 43.2 °F 37% 29.85 in 10.0 mi NNE 6.9 mph - N/A   Clear
8:55 PM 68.5 °F 43.3 °F 40% 29.84 in 10.0 mi NNE 8.1 mph - N/A   Clear
9:15 PM 67.8 °F 43.2 °F 41% 29.84 in 10.0 mi NNE 9.2 mph - N/A   Clear
9:35 PM 68.0 °F 42.8 °F 40% 29.85 in 10.0 mi NNE 6.9 mph - N/A   Clear
9:55 PM 66.9 °F 42.8 °F 42% 29.86 in 10.0 mi ENE 4.6 mph - N/A   Clear
10:15 PM 67.3 °F 42.8 °F 41% 29.87 in 10.0 mi NE 5.8 mph - N/A   Clear
10:35 PM 68.0 °F 42.8 °F 40% 29.88 in 10.0 mi NE 5.8 mph - N/A   Clear
10:55 PM 68.4 °F 41.7 °F 38% 29.88 in 10.0 mi NE 5.8 mph - N/A   Clear
11:15 PM 69.8 °F 41.0 °F 35% 29.88 in 10.0 mi NE 6.9 mph - N/A   Clear
11:35 PM 68.9 °F 40.8 °F 36% 29.88 in 10.0 mi NE 5.8 mph - N/A   Scattered Clouds
11:55 PM 68.0 °F 41.0 °F 37% 29.88 in 10.0 mi ENE 4.6 mph - N/A   Scattered Clouds